Weather History for KSQI - October, 2013

Change the Weather History Date:

Tuesday, October 1, 2013

  Actual Average Record
Temperature  
Mean Temperature 68 °F -  
Max Temperature 86 °F 66 °F 86 °F (2013)
Min Temperature 50 °F 43 °F 30 °F (2003)
Cooling Degree Days 3    
Growing Degree Days 18 (Base 50)    
Moisture  
Dew Point 57 °F    
Average Humidity 71    
Maximum Humidity 94    
Minimum Humidity 43    
Precipitation  
Precipitation 0.00 in - - ()
Sea Level Pressure  
Sea Level Pressure 29.92 in    
Wind  
Wind Speed 4 mph (WSW)    
Max Wind Speed 15 mph    
Max Gust Speed 23 mph    
Visibility 9 miles    
Events      
Averages and records for this station are not official NWS values.
T = Trace of Precipitation, MM = Missing Value Source: NWS Daily Summary

Daily Weather History Graph

Daily Weather History Graph

Search for Another Location

Airport or City:

Trip Planner

Search our weather history database for the weather conditions in past years. The results will help you decide how hot, cold, wet, or windy it might be!

Date:

Astronomy

Oct. 01, 2013 Rise Set
Actual Time 6:55 AM CDT 6:39 PM CDT
Civil Twilight 6:28 AM CDT 7:07 PM CDT
Nautical Twilight 5:55 AM CDT 7:39 PM CDT
Astronomical Twilight 5:23 AM CDT 8:12 PM CDT
Moon 3:27 AM CDT (10/1) 4:45 PM CDT (10/1)
Length of Visible Light 12h 39m
Length of Day
11h 44m
Waning Crescent, 12% of the Moon is Illuminated
Oct 1
Waning Crescent
Oct 4
New
Oct 11
First Quarter
Oct 18
Full
Oct 26
Last Quarter

Hourly Weather History & Observations

Time (CDT) Temp. Heat Index Dew Point Humidity Pressure Visibility Wind Dir Wind Speed Gust Speed Precip Events Conditions
12:15 AM 60.8 °F - 53.6 °F 77% 29.88 in 10.0 mi Calm Calm - N/A   Clear
12:35 AM 60.8 °F - 53.6 °F 77% 29.89 in 10.0 mi SSW 3.5 mph - N/A   Clear
12:55 AM 60.8 °F - 53.6 °F 77% 29.89 in 10.0 mi Calm Calm - N/A   Clear
1:15 AM 60.8 °F - 53.6 °F 77% 29.90 in 10.0 mi Calm Calm - N/A   Clear
1:35 AM 59.0 °F - 53.6 °F 82% 29.91 in 10.0 mi Calm Calm - N/A   Clear
1:55 AM 57.2 °F - 51.8 °F 82% 29.91 in 10.0 mi Calm Calm - N/A   Clear
2:15 AM 51.8 °F - 46.4 °F 82% 29.91 in 6.0 mi Calm Calm - N/A   Clear
2:35 AM 51.8 °F - 48.2 °F 88% 29.91 in 5.0 mi Calm Calm - N/A   Clear
2:55 AM 51.8 °F - 48.2 °F 88% 29.91 in 4.0 mi Calm Calm - N/A   Clear
3:15 AM 50.0 °F - 33.8 °F 54% 29.90 in 3.0 mi Calm Calm - N/A   Clear
3:35 AM 53.6 °F - 51.8 °F 94% 29.90 in 4.0 mi Calm Calm - N/A   Clear
3:55 AM 55.4 °F - 51.8 °F 88% 29.90 in 5.0 mi Calm Calm - N/A   Clear
4:15 AM 53.6 °F - 51.8 °F 94% 29.90 in 5.0 mi Calm Calm - N/A   Clear
4:35 AM 55.4 °F - 53.6 °F 94% 29.90 in 6.0 mi Calm Calm - N/A   Clear
4:55 AM 57.2 °F - 53.6 °F 88% 29.91 in 8.0 mi Calm Calm - N/A   Clear
5:15 AM 59.0 °F - 55.4 °F 88% 29.91 in 10.0 mi Calm Calm - N/A   Clear
5:35 AM 59.0 °F - 55.4 °F 88% 29.91 in 10.0 mi South 3.5 mph - N/A   Clear
5:55 AM 59.0 °F - 55.4 °F 88% 29.92 in 10.0 mi Calm Calm - N/A   Clear
6:15 AM 60.8 °F - 55.4 °F 82% 29.92 in 10.0 mi South 3.5 mph - N/A   Clear
6:35 AM 60.8 °F - 55.4 °F 82% 29.92 in 10.0 mi Calm Calm - N/A   Clear
6:55 AM 60.8 °F - 55.4 °F 82% 29.93 in 10.0 mi South 3.5 mph - N/A   Clear
7:15 AM 60.8 °F - 57.2 °F 88% 29.94 in 10.0 mi Calm Calm - N/A   Scattered Clouds
7:35 AM 60.8 °F - 57.2 °F 88% 29.95 in 10.0 mi SW 4.6 mph - N/A   Mostly Cloudy
7:55 AM 62.6 °F - 59.0 °F 88% 29.95 in 7.0 mi SW 4.6 mph - N/A   Overcast
8:15 AM - - - N/A% 29.94 in 6.0 mi SSW 4.6 mph - N/A   Overcast
8:35 AM - - - N/A% 29.94 in 7.0 mi SW 4.6 mph - N/A   Overcast
8:55 AM - - - N/A% 29.93 in 8.0 mi SW 5.8 mph 16.1 mph N/A   Overcast
9:15 AM - - - N/A% 29.94 in 9.0 mi WSW 6.9 mph - N/A   Overcast
9:35 AM - - - N/A% 29.95 in 10.0 mi WSW 9.2 mph - N/A   Overcast
9:55 AM - - - N/A% 29.95 in 10.0 mi SW 5.8 mph - N/A   Overcast
10:15 AM 69.8 °F - 62.6 °F 78% 29.95 in 10.0 mi SSW 8.1 mph 16.1 mph N/A   Overcast
10:35 AM - - - N/A% 29.94 in 10.0 mi SW 8.1 mph - N/A   Overcast
10:55 AM - - - N/A% 29.94 in 10.0 mi SW 6.9 mph - N/A   Mostly Cloudy
11:15 AM - - - N/A% 29.93 in 10.0 mi SW 6.9 mph - N/A   Partly Cloudy
11:35 AM - - - N/A% 29.93 in 10.0 mi WSW 9.2 mph 18.4 mph N/A   Clear
11:55 AM 78.8 °F - 60.8 °F 54% 29.93 in 10.0 mi WSW 9.2 mph 16.1 mph N/A   Clear
12:15 PM 78.8 °F - 62.6 °F 57% 29.93 in 10.0 mi WSW 10.4 mph 18.4 mph N/A   Clear
12:35 PM 80.6 °F 81.8 °F 62.6 °F 54% 29.92 in 10.0 mi WSW 11.5 mph 18.4 mph N/A   Clear
12:55 PM 80.6 °F 81.5 °F 60.8 °F 51% 29.91 in 10.0 mi WSW 10.4 mph 23.0 mph N/A   Clear
1:15 PM - - - N/A% 29.90 in 10.0 mi WSW 9.2 mph 19.6 mph N/A   Clear
1:35 PM 82.4 °F 82.9 °F 60.8 °F 48% 29.90 in 10.0 mi WSW 11.5 mph 17.3 mph N/A   Clear
1:55 PM - - - N/A% 29.89 in 10.0 mi SW 5.8 mph - N/A   Clear
2:15 PM - - - N/A% 29.89 in 10.0 mi SW 10.4 mph 17.3 mph N/A   Clear
2:35 PM - - - N/A% 29.88 in 10.0 mi WSW 11.5 mph 19.6 mph N/A   Clear
2:55 PM - - - N/A% 29.88 in 10.0 mi WSW 12.7 mph 19.6 mph N/A   Clear
3:15 PM 84.2 °F 84.4 °F 60.8 °F 45% 29.88 in 10.0 mi WSW 10.4 mph 19.6 mph N/A   Clear
3:35 PM 86.0 °F 86.1 °F 60.8 °F 43% 29.88 in 10.0 mi WSW 6.9 mph 17.3 mph N/A   Clear
3:55 PM 84.2 °F 84.4 °F 60.8 °F 45% 29.88 in 10.0 mi WSW 13.8 mph 19.6 mph N/A   Clear
4:15 PM 84.2 °F 84.4 °F 60.8 °F 45% 29.89 in 10.0 mi WSW 11.5 mph 21.9 mph N/A   Partly Cloudy
4:35 PM - - - N/A% 29.89 in 10.0 mi WSW 13.8 mph 19.6 mph N/A   Partly Cloudy
4:55 PM 84.2 °F 84.4 °F 60.8 °F 45% 29.89 in 10.0 mi WSW 10.4 mph - N/A   Partly Cloudy
5:15 PM 82.4 °F 82.9 °F 60.8 °F 48% 29.90 in 10.0 mi West 12.7 mph - N/A   Clear
5:35 PM - - - N/A% 29.90 in 10.0 mi West 15.0 mph 21.9 mph N/A   Clear
5:55 PM 80.6 °F 81.5 °F 60.8 °F 51% 29.91 in 10.0 mi West 13.8 mph - N/A   Clear
6:15 PM 78.8 °F - 60.8 °F 54% 29.91 in 10.0 mi West 10.4 mph - N/A   Clear
6:35 PM 78.8 °F - 59.0 °F 51% 29.92 in 10.0 mi WSW 8.1 mph - N/A   Clear
6:55 PM 77.0 °F - 59.0 °F 54% 29.92 in 10.0 mi WSW 8.1 mph - N/A   Clear
7:15 PM 75.2 °F - 59.0 °F 57% 29.92 in 10.0 mi WSW 4.6 mph - N/A   Clear
7:35 PM 75.2 °F - 59.0 °F 57% 29.93 in 10.0 mi WSW 4.6 mph - N/A   Clear
7:55 PM 73.4 °F - 59.0 °F 61% 29.93 in 10.0 mi WSW 5.8 mph - N/A   Partly Cloudy
8:15 PM 73.4 °F - 59.0 °F 61% 29.94 in 10.0 mi Calm Calm - N/A   Partly Cloudy
8:35 PM 71.6 °F - 57.2 °F 60% 29.94 in 10.0 mi WSW 3.5 mph - N/A   Partly Cloudy
8:55 PM 71.6 °F - 60.8 °F 69% 29.95 in 10.0 mi Calm Calm - N/A   Partly Cloudy
9:15 PM 71.6 °F - 60.8 °F 69% 29.95 in 10.0 mi Calm Calm - N/A   Partly Cloudy
9:35 PM 69.8 °F - 60.8 °F 73% 29.95 in 10.0 mi Calm Calm - N/A   Clear
9:55 PM 66.2 °F - 60.8 °F 83% 29.96 in 10.0 mi West 5.8 mph - N/A   Clear
10:15 PM 66.2 °F - 59.0 °F 78% 29.96 in 10.0 mi WNW 4.6 mph - N/A   Clear
10:35 PM 64.4 °F - 60.8 °F 88% 29.97 in 10.0 mi Calm Calm - N/A   Clear
10:55 PM 62.6 °F - 57.2 °F 82% 29.97 in 10.0 mi Calm Calm - N/A   Clear
11:15 PM 60.8 °F - 55.4 °F 82% 29.98 in 10.0 mi Calm Calm - N/A   Clear
11:35 PM 62.6 °F - 57.2 °F 82% 29.98 in 10.0 mi Calm Calm - N/A   Clear
11:55 PM 60.8 °F - 55.4 °F 82% 29.98 in 10.0 mi Calm Calm - N/A   Clear